Location: Alphen
(52.1351°N, 4.6549°E)
Time: 01:03:00
(UTC+00:00)

Cosmos 1125 Rocket - Pass Details

Date: 27 January 2021
Orbit: 756 x 781 km, 74.0° (Epoch: 26 February)

Event Time Altitude Azimuth Distance (km) Brightness Sun altitude
Exits shadow 05:01:53 27° 335° (NNW) 1,481 4.7 -22.4°
Maximum altitude 05:04:54 89° 249° (WSW) 788 3.4 -21.9°
Drops below altitude 10° 05:10:14 10° 157° (SSE) 2,331 6.3 -21.1°
Sets 05:12:36 0° 158° (SSE) 3,255 7.1 -20.7°
